This is the latest recevied weather packets stored in our database for station/object N8XHB. If no packets are shown the sender has not sent any weather packets the latest 10 day(s).
| Time | Temp. | Humidity | Pressure | Rain* | Wind** | Luminosity | Snow |
|---|---|---|---|---|---|---|---|
| 1777497981 | 7.78° C | 91% | 1012.4 hPa | 0 mm | - | 61 W/m² | - |
| 1777497676 | 7.78° C | 91% | 1012.4 hPa | 0 mm | - | 46 W/m² | - |
| 1777497373 | 7.78° C | 90% | 1012.4 hPa | 0 mm | - | 57 W/m² | - |
| 1777497069 | 7.78° C | 90% | 1012.3 hPa | 0 mm | - | 78 W/m² | - |
| 1777496765 | 7.78° C | 91% | 1012.4 hPa | 0 mm | - | 79 W/m² | - |
| 1777496462 | 7.78° C | 91% | 1012.5 hPa | 0 mm | - | 69 W/m² | - |
| 1777496159 | 7.78° C | 91% | 1012.3 hPa | 0 mm | - | 86 W/m² | - |
| 1777495855 | 7.78° C | 91% | 1012.3 hPa | 1.78 mm | - | 93 W/m² | - |
| 1777495551 | 7.78° C | 91% | 1012.5 hPa | 1.78 mm | - | 103 W/m² | - |
| 1777495247 | 7.78° C | 92% | 1012.4 hPa | 0 mm | - | 87 W/m² | - |
| 1777494945 | 7.78° C | 91% | 1012.3 hPa | 0 mm | - | 89 W/m² | - |
| 1777494642 | 7.78° C | 92% | 1012.3 hPa | 1.27 mm | - | 98 W/m² | - |
| 1777494339 | 7.78° C | 91% | 1012.3 hPa | 1.27 mm | - | 87 W/m² | - |
| 1777494035 | 7.78° C | 91% | 1012.2 hPa | 0 mm | - | 94 W/m² | - |
| 1777493733 | 7.78° C | 91% | 1012.1 hPa | 0 mm | - | 124 W/m² | - |
| 1777493431 | 7.78° C | 91% | 1012.3 hPa | 0 mm | - | 141 W/m² | - |
| 1777493126 | 8.33° C | 91% | 1012.2 hPa | 1.78 mm | - | 140 W/m² | - |
| 1777492824 | 8.33° C | 92% | 1012.2 hPa | 1.78 mm | - | 129 W/m² | - |
| 1777492520 | 7.78° C | 92% | 1012.1 hPa | 1.27 mm | - | 123 W/m² | - |
| 1777492216 | 7.78° C | 92% | 1012.1 hPa | 1.27 mm | - | 146 W/m² | - |
| 1777491914 | 8.33° C | 91% | 1012.2 hPa | 1.78 mm | - | 140 W/m² | - |
| 1777491609 | 8.33° C | 91% | 1012.2 hPa | 3.05 mm | - | 127 W/m² | - |
| 1777491307 | 8.33° C | 92% | 1012.2 hPa | 1.27 mm | - | 123 W/m² | - |
| 1777491004 | 8.33° C | 91% | 1012.2 hPa | 1.78 mm | - | 101 W/m² | - |
| 1777490699 | 8.33° C | 91% | 1012.3 hPa | 1.78 mm | - | 95 W/m² | - |
* Rain latest hour (hover to see other rain measurements)
** Current wind speed in m/s (hover to see current wind gust speed)